FENGYUN 1C DEB, 31365

Orbit data source: Space-Track

FENGYUN 1C DEB, 31365 is space debris in SSO originally from a launch on Mon, 10 May 1999 UTC launched from the Taiyaun Space Center, China (TSC). Fengyun 1C debris stems from the Chinese weather satellite Fengyun-1C, which was intentionally destroyed by a Chinese anti-satellite missile in 2007. This event dramatically increased the amount of space debris, with thousands of trackable fragments posing hazards to satellites and human spaceflight. The Fengyun 1C debris cloud has become a focal point in discussions about space sustainability and the need for international regulations to prevent the creation of new debris.

Loading next visibility...
Identifier
31365, 1999-025BRV
Orbit
SSO
Country
Flag of CNCN / PRC
Related business
Manufacturer
Unknown
Mission
Spacecraft
Bus & Motor
Unknown
Mass
Unknown
Launch date (UTC)
1999-05-10 (27 years ago)
Launch vehicle
Unknown
Launch site
Taiyaun Space Center, China (TSC)
Object type
Payload
Rocket body
Debris
Shape & HBR
Unknown shape, 0.1 m
Radar Cross Section
Small (<0.1 m²)

Expand to show TLE details & history
Last TLE update: 7 hours ago

TLE from 7 hours ago
0 FENGYUN 1C DEB
1 31365U 99025BRV 26124.21760992  .00005226  00000-0  15336-2 0  9999
2 31365  98.6663 216.6830 0042613 153.9183 206.4166 14.43714431986831
Epoch: 2026-05-04T05:13Z
TLE epoch observation values (Epoch: 2026-05-04T05:13:21.497Z)
Latitude
-0.00002°
Longitude
-83.76654°
Altitude
776.421 km
Speed
7.452 km/s
True Right ascension
14h 26m 43s
True Declination
0° 00' 00"
Sunlit
Object was in full shadow at epoch
Visualization orbit readout
Latitude
Unknown
Longitude
Unknown
Altitude
Unknown
Speed
Unknown
Apparent Right ascension
Unknown
Apparent Declination
Unknown
Sunlit
N/A
Visualization observer readout
Local Sidereal Time
19:51:51
Azimuth
Unknown
Elevation
Unknown
Doppler factor
Unknown
Orbital elements
Apogee altitude
773.724 km
Perigee altitude
713.03 km
Semi-major axis
7,121.514 km
Eccentricity
0.00426
Inclination
98.6663°
RAAN
216.683°
Arg. of periapsis
153.9183°
True anomaly
206.20039°
Mean anomaly
206.4166°
Eccentric anomaly
206.30839°
Mean motion
3.61148 °/min
Orbital period
99.68 mins
BSTAR
0.0015336
Loading maneuver chart data...
Computing Atmospheric mass density...

Documentation

Showing up to 5 results
|